FENGYUN 1C DEB, 31555

Orbit data source: Space-Track

FENGYUN 1C DEB, 31555 is space debris in SSO originally from a launch on Mon, 10 May 1999 UTC launched from the Taiyaun Space Center, China (TSC). Fengyun 1C debris stems from the Chinese weather satellite Fengyun-1C, which was intentionally destroyed by a Chinese anti-satellite missile in 2007. This event dramatically increased the amount of space debris, with thousands of trackable fragments posing hazards to satellites and human spaceflight. The Fengyun 1C debris cloud has become a focal point in discussions about space sustainability and the need for international regulations to prevent the creation of new debris.

Loading next visibility...
Identifier
31555, 1999-025BYW
Orbit
SSO
Country
Flag of CNCN / PRC
Related business
Manufacturer
Unknown
Mission
Spacecraft
Bus & Motor
Unknown
Mass
Unknown
Launch date (UTC)
1999-05-10 (27 years ago)
Launch vehicle
Unknown
Launch site
Taiyaun Space Center, China (TSC)
Object type
Payload
Rocket body
Debris
Shape & HBR
Unknown shape, 0.1 m
Radar Cross Section
Small (<0.1 m²)

Expand to show TLE details & history
Last TLE update: 3 days ago

TLE from 3 days ago
0 FENGYUN 1C DEB
1 31555U 99025BYW 26172.67019649  .00004657  00000-0  11282-2 0  9992
2 31555  99.1164 145.8972 0149504 350.6126   9.2276 14.46939211993224
Epoch: 2026-06-21T16:05Z
TLE epoch observation values (Epoch: 2026-06-21T16:05:04.976Z)
Latitude
-0.00003°
Longitude
-5.24066°
Altitude
633.644 km
Speed
7.597 km/s
True Right ascension
09h 43m 35s
True Declination
0° 00' 00"
Sunlit
Object was in daylight at epoch
Visualization orbit readout
Latitude
Unknown
Longitude
Unknown
Altitude
Unknown
Speed
Unknown
Apparent Right ascension
Unknown
Apparent Declination
Unknown
Sunlit
N/A
Visualization observer readout
Local Sidereal Time
09:26:37
Azimuth
Unknown
Elevation
Unknown
Doppler factor
Unknown
Orbital elements
Apogee altitude
839.116 km
Perigee altitude
626.493 km
Semi-major axis
7,110.942 km
Eccentricity
0.01495
Inclination
99.1164°
RAAN
145.8972°
Arg. of periapsis
350.6126°
True anomaly
9.50748°
Mean anomaly
9.2276°
Eccentric anomaly
9.36702°
Mean motion
3.61953 °/min
Orbital period
99.46 mins
BSTAR
0.0011282
Loading maneuver chart data...
Computing Atmospheric mass density...

Documentation

Showing up to 5 results
|